Regional Weather Roundup
Issued by NWS

Home | Current Version | Previous Version | Text Only | Print | Product List | Glossary Off
Versions: 1 2 3 4 5 6 7 8 9 10 11 12 13 14 15 16 17 18 19 20 21 22 23 24 25 26 27 28 29 30 31 32 33 34 35 36 37 38 39 40 41 42 43 44 45 46 47 48 49 50

000
ASUS43 KTOP 240708
RWRKS

WEATHER ROUNDUP FOR KANSAS
NATIONAL WEATHER SERVICE GOODLAND KS
100 AM CST FRI FEB 24 2017

NOTE:  "FAIR" INDICATES FEW OR NO CLOUDS BELOW 12,000 FEET WITH NO
SIGNIFICANT WEATHER AND/OR OBSTRUCTIONS TO VISIBILITY.

KSZ001>006-013>018-027>032-041>047-240800-
NORTHWEST KANSAS

CITY           SKY/WX    TMP DP  RH WIND       PRES   REMARKS
GOODLAND       CLOUDY    23  20  88 NW22G31   29.77R WCI   8
HAYS           CLOUDY    32  26  78 N18       29.72R WCI  20
HILL CITY      CLOUDY    30  25  81 N13       29.76S WCI  20
RUSSELL        CLOUDY    32  28  85 N22       29.70R WCI  19
$$

KSZ061>065-074>080-084>089-240800-
SOUTHWEST KANSAS

CITY           SKY/WX    TMP DP  RH WIND       PRES   REMARKS
DODGE CITY     CLOUDY    31  24  75 N21G31    29.74R WCI  18
ELKHART          N/A     26  12  55 N16         N/A  WCI  14
GARDEN CITY    CLOUDY    30  20  66 N25G35    29.76R WCI  16
GREAT BEND     CLOUDY    34  28  79 NW23      29.70R WCI  22
LIBERAL        CLEAR     28  19  69 NW17      29.78R WCI  16
PRATT          CLOUDY    33  27  78 NW30G36   29.67R WCI  19
$$

KSZ066>073-081>083-090>101-240800-
SOUTHEAST KANSAS

CITY           SKY/WX    TMP DP  RH WIND       PRES   REMARKS
CHANUTE        CLOUDY    47  40  76 NW23G35   29.50R
COFFEYVILLE    PTCLDY    49  42  77 NW26G35   29.51R
HUTCHINSON     CLOUDY    37  32  82 NW22G29   29.63S WCI  26
MEDICINE LODGE   N/A     37  29  72 N21G33    29.67R WCI  26
NEWTON         CLOUDY    37  34  89 NW26G33   29.60S WCI  25
PARSONS        MOCLDY    49  42  77 NW21G28   29.51R
WICHITA INTL   CLOUDY    40  35  83 NW25G33   29.60R WCI  29
WICHITA JABRA  MOCLDY    38  35  89 NW16G26   29.59R WCI  29
WICHITA MCCONL PTCLDY    40  35  81 NW16G24   29.59R WCI  31
WINFIELD       CLOUDY    44  38  79 NW18G25   29.61R
$$

KSZ007>012-019>026-033>040-048>060-102>105-240800-
NORTHEAST KANSAS

CITY           SKY/WX    TMP DP  RH WIND       PRES   REMARKS
CONCORDIA      CLOUDY    32  31  96 N17       29.65R WCI  21
EMPORIA        CLOUDY    43  38  82 NW16G26   29.52F
LAWRENCE       CLOUDY    44  39  82 W6        29.50R
MANHATTAN      CLOUDY    39  35  86 NW12G18   29.60R WCI  32
MARYSVILLE     CLOUDY    34  32  93 N12G20    29.60R WCI  25
OLATHE IND     CLOUDY    43  40  89 NW22G28   29.50R
OLATHE EXE     CLOUDY    43  42  97 NW24G30   29.47R
SALINA         CLOUDY    38  32  79 NW22G30   29.65R WCI  27
TOPEKA BILLARD CLOUDY    44  40  85 W9        29.53R
TOPEKA FORBES  CLOUDY    44  39  82 NW13      29.52R
$$




USA.gov is the U.S. government's official web portal to all federal, state and local government web resources and services.